Location: Fazenda Monte Alegre
(4.8500°S, 38.0333°W)
Time: 16:37:09
(UTC+00:00)

BLOCK DM-SL R/B - Pass Details

Date: 24 September 2020
Orbit: 401 x 40954 km, 1.1° (Epoch: 24 October)

Event Time Altitude Azimuth Distance (km) Brightness Sun altitude
Rises 20:45:54 0° 273° (W) 15,050 12.4 -5.4°
Reaches altitude 10° 21:06:36 10° 275° (W) 8,013 9.8 -10.6°
Maximum altitude 21:22:57 62° 354° (N) 1,110 3.8 -14.6°
Enters shadow 21:25:22 23° 69° (ENE) 1,420 3.8 -15.2°
